Flag for United Kingdom Weather past 2 weeks in Hinckley, England, United Kingdom

Now
43 °F

Quite cool.


Feels Like: 39 °F
Forecast: 40 / 52 °F
Wind: 6 mph from Southwest

Location: Church Lawford

Current Time: Mar 6, 2015 at 6:42:08 AM

Latest Report: Mar 6, 2015 at 6:00 AM


Visibility: 13 mi

Pressure: 30.54 "Hg

Humidity: 78%

Dew point: 36 °F

Location of HinckleyLocation

Historic Weather in Hinckley — Graph

°F

Hinckley temperature yesterday

Maximum temperature yesterday: 47 °F (at 4:00 PM)
Minimum temperature yesterday: 33 °F (at 2:00 AM)
Average temperature yesterday: 41 °F

Past Weeks' High & Low Weather Summary

 TemperatureHumidityPressure
High51 °F (Feb 26, 10:00 AM)100% (Feb 19, 7:00 PM)30.69 "Hg (Feb 19, 7:00 PM)
Low30 °F (Feb 22, 7:00 AM)47% (Mar 2, 4:00 PM)29.15 "Hg (Feb 22, 10:00 PM)
Average41 °F82%29.82 "Hg
* Reported Feb 19 5:00 AM — Mar 6 5:00 AM, Hinckley, Weather by CustomWeather, © 2015

Note: Actual official high and low records may vary slightly from our data, if they occured in-between our weather recording intervals... More about our weather records

Advertising

Hinckley weather history for previous 24 hours

 ConditionsComfort  
Time TempWeatherWind HumidityBarometerVisibility
5:00 AM
Fri, Mar 6
43 °FQuite cool.6 mph78%30.55 "Hg22 mi
4:00 AM43 °FQuite cool.5 mph78%30.56 "Hg22 mi
2:00 AM43 °FQuite cool.6 mph76%30.58 "Hg16 mi
1:00 AM43 °FQuite cool.6 mph76%30.59 "Hg19 mi
12:00 AM44 °FQuite cool.6 mph75%30.59 "Hg25 mi
11:00 PM
Thu, Mar 5
44 °FQuite cool.6 mph75%30.60 "Hg22 mi
10:00 PM45 °FQuite cool.6 mph71%30.61 "Hg19 mi
9:00 PM45 °FCool.6 mph71%30.61 "Hg22 mi
8:00 PM46 °FCool.7 mph71%30.60 "Hg22 mi
7:00 PM46 °FCool.6 mph70%30.60 "Hg22 mi
6:00 PM46 °FCool.8 mph69%30.60 "Hg16 mi
5:00 PM47 °FCool.9 mph69%30.60 "Hg25 mi
4:00 PM47 °FCool.10 mph73%30.61 "Hg22 mi
3:00 PM47 °FCool.9 mph76%30.62 "Hg17 mi
2:00 PM46 °FCool.9 mph77%30.63 "Hg11 mi
1:00 PM46 °FCool.9 mph77%30.64 "Hg14 mi
12:00 PM46 °FCool.9 mph78%30.65 "Hg14 mi
11:00 AM44 °FQuite cool.8 mph79%30.66 "Hg11 mi
10:00 AM44 °FQuite cool.8 mph79%30.68 "Hg16 mi
9:00 AM38 °FChilly.9 mph88%30.69 "Hg9 mi
8:00 AM36 °FChilly.6 mph85%30.68 "Hg7 mi
7:00 AM35 °FChilly.5 mph86%30.68 "Hg7 mi
6:00 AM35 °FChilly.5 mph86%30.68 "Hg10 mi
Weather by CustomWeather, © 2015

See weather overviewHow to use our weather pages